Location: Kirkland Lake
(48.1510°N, 80.0330°W)
Time: 16:39:41
(UTC-04:00)

ISS - Visible Passes

Search period start: 16 April 2026 00:00
Search period end: 26 April 2026 00:00
Orbit: 415 x 424 km, 51.6° (Epoch: 15 April)

Date Brightness Start Highest point End Pass type
(mag) Time Alt. Az. Time Alt. Az. Time Alt. Az.
18 Apr -1.4 05:38:01 10° S 05:40:21 18° SE 05:42:44 10° E visible
19 Apr -1.1 04:51:56 10° SSE 04:53:10 12° SE 04:54:24 10° ESE visible
20 Apr -2.8 05:38:53 10° SW 05:42:03 40° SSE 05:45:15 10° ENE visible
21 Apr -2.2 04:52:56 17° S 04:54:45 27° SE 04:57:38 10° E visible
22 Apr -1.7 04:07:18 18° SE 04:07:27 18° SE 04:09:50 10° E visible
22 Apr -3.7 05:40:31 10° WSW 05:43:53 85° SSE 05:47:16 10° ENE visible
23 Apr -3.5 04:54:34 23° SW 04:56:27 60° SSE 04:59:48 10° ENE visible
24 Apr -3.1 04:08:49 39° SSE 04:09:04 40° SSE 04:12:15 10° ENE visible
25 Apr -1.7 03:23:01 21° ESE 03:23:01 21° ESE 03:24:36 10° E visible
25 Apr -3.6 04:55:57 18° WSW 04:58:18 72° NNW 05:01:41 10° ENE visible
